[Date Prev][Date Next][Thread Prev][Thread Next] - [Date Index][Thread Index][Author Index]

2 Line ISS Keps 12-11



ISS
1 25544U 98067A   04346.16500000  .00016537  00000-0  13241-3 0  3382
2 25544  51.6376 142.4226 0004315  97.9979 252.8120 15.71205299346110
----
Via the sarex mailing list at AMSAT.ORG courtesy of AMSAT-NA.
To unsubscribe, send "unsubscribe sarex" to Majordomo@amsat.org



AMSAT Top AMSAT Home